Terug naar catalogus

STARLINK-5336

ActiefCommunicatieVLEO
NORAD 57138·PAYLOAD·🇺🇸 United States

Gelanceerd Jun 23, 2023 vanaf Cape Canaveral Space Force Station

Loading…

Volgende Passages (komende 24 uur)

TLE

VersSource: CelesTrak SupGP

Epoch: Sep 15, 2026, 02:04 UTC

1 57138C 23090AP  26258.08659722  .00003037  00000+0  10998-3 0  2580
2 57138  43.0036 273.5606 0001446 292.3492 340.0957 15.27579927    10

Volg STARLINK-5336 in realtime met AllMySat

Download on the App Store